Tracking 35030 objects as of 11-Aug-2026
HD Live streaming from Space Station
objects crossing your sky now

LUCA

Track LUCA now!
10-day predictions
LUCA is classified as:


NORAD ID: 67287
Int'l Code: 2025-313AR
Launch date: December 28, 2025
Source: (TBD)
Launch site: VOSTOCHNY COSMODROME (VOSTO)

Uplink (MHz):
Downlink (MHz): 437.180
Beacon (MHz):
Mode: 2k4*/4k8 GMSK_USP
Call sign: RS90S
Status: Active

Your satellite tracking list
Your tracking list is empty




NASA's NSSDC Master Catalog

Two Line Element Set (TLE):
1 67287U 25313AR  26222.71135498  .00004761  00000-0  19133-3 0  9994
2 67287  97.3914 297.0066 0010279 155.9236 204.2485 15.25371713 34282
Source of the keplerian elements: AFSPC